DECAYED
Showing default

BRO-10, 58331 (Decayed)

Orbit data source: Space-Track

BRO-10, 58331 was a payload satellite owned by Unseen Labs (FR) in LEO that was launched on Sat, 11 Nov 2023 UTC via an FALCON 9 launch vehicle from the Air Force Western Test Range (AFWTR). Payload-class satellites include a variety of spacecraft equipped with specific instruments for various scientific and technological missions. These include communications satellites like Starlink; space stations such as the ISS; scientific satellites like the Hubble; Earth observation satellites from companies like Planet Labs, Umbra, and HawkEye 360; GPS; miniature CubeSats for education and research; and military/defense satellites.

Not visible in the next 10 days
Identifier
58331, 2023-174CD
Orbit
Decayed
Country
Flag of FRFR
Related business
Manufacturer
GOMSpace
Mission
Decayed Commercial Sigint
Bus & Motor
CUBESAT 6U, Unknown motor
Mass
10 kg wet, ~10 kg dry
Launch date (UTC)
2023-11-11 (3 years ago)
Launch vehicle
FALCON 9
Launch site
Air Force Western Test Range (AFWTR)
Object type
Payload
Rocket body
Debris
Shape & HBR
Box, 0.2 m
Radar Cross Section
0.080 m², Medium (>0.1 m² and < 1m²)

Expand to show TLE details & history
Last TLE update: 4 months ago

TLE from 4 months ago
0 BRO-10
1 58331U 23174CD  26115.38949140  .08188723  24853-5  11659-2 0  9998
2 58331  97.3464 212.6257 0014863 262.6139  97.3468 16.34539426138137
Epoch: 2026-04-25T09:20Z
TLE epoch observation values (Epoch: 2026-04-25T09:20:52.056Z)
Latitude
-0.00013°
Longitude
-140.99974°
Altitude
184.876 km
Speed
7.795 km/s
True Right ascension
14h 10m 30s
True Declination
0° 00' 00"
Sunlit
Object was in full shadow at epoch
Visualization orbit readout
Latitude
Unknown
Longitude
Unknown
Altitude
Unknown
Speed
Unknown
Apparent Right ascension
Unknown
Apparent Declination
Unknown
Sunlit
N/A
Visualization observer readout
Local Sidereal Time
23:01:07
Azimuth
Unknown
Elevation
Unknown
Doppler factor
Unknown
Orbital elements
Apogee altitude
186.924 km
Perigee altitude
167.438 km
Semi-major axis
6,555.318 km
Eccentricity
0.00149
Inclination
97.3464°
RAAN
212.6257°
Arg. of periapsis
262.6139°
True anomaly
97.51568°
Mean anomaly
97.3468°
Eccentric anomaly
97.43124°
Mean motion
4.08933 °/min
Orbital period
88.03 mins
BSTAR
0.0011659
Loading maneuver chart data...
Computing Atmospheric mass density...

Documentation

Showing up to 5 results
|